Location: Mentone
(34.5413°N, 85.5351°W)
Time: 13:32:04
(UTC-05:00)

Vanguard 3 - All Passes

Search period start: 23 October 2014 00:00
Search period end: 02 November 2014 00:00
Orbit: 508 x 3278 km, 33.3° (Epoch: 23 October)

Date Brightness Start Highest point End Pass type
(mag) Time Alt. Az. Time Alt. Az. Time Alt. Az.
23 Oct - 00:47:56 10° WSW 00:56:21 63° SSE 01:01:15 10° E night (unlit)
23 Oct - 03:02:47 10° W 03:08:13 76° S 03:12:02 10° E night (unlit)
23 Oct - 05:16:06 10° W 05:19:24 27° SSW 05:22:37 10° SE visible
23 Oct - 21:20:12 10° SSW 21:30:41 25° SSE 21:37:44 10° ESE visible
23 Oct - 23:33:48 10° SW 23:44:12 52° SSE 23:50:06 10° E visible
24 Oct - 01:49:21 10° W 01:56:32 79° S 02:00:55 10° E night (unlit)
24 Oct - 04:03:38 10° W 04:08:04 49° SSW 04:11:37 10° ESE visible
24 Oct - 06:18:56 10° SSW 06:19:04 10° SSW 06:19:13 10° SSW visible
24 Oct - 20:08:08 10° S 20:17:22 18° SSE 20:24:23 10° ESE visible
24 Oct - 22:19:39 10° SW 22:31:37 41° SSE 22:38:40 10° E visible
25 Oct - 00:35:14 10° WSW 00:44:35 72° S 00:49:51 10° E night (unlit)
25 Oct - 02:50:39 10° W 02:56:36 72° S 03:00:33 10° ESE night (unlit)
25 Oct - 05:04:37 10° WSW 05:07:41 21° SSW 05:10:31 10° SSE visible
25 Oct - 18:59:15 10° SSE 19:03:42 12° SE 19:07:43 10° SE visible
25 Oct - 21:05:52 10° SSW 21:18:35 33° SSE 21:26:43 10° E visible
25 Oct - 23:20:40 10° WSW 23:32:18 61° SSE 23:38:42 10° E visible
26 Oct - 01:36:56 10° W 01:44:51 81° S 01:49:30 10° E night (unlit)
26 Oct - 03:51:42 10° W 03:56:24 41° SSW 03:59:57 10° SE visible
26 Oct - 19:52:58 10° SSW 20:05:08 24° SSE 20:13:52 10° ESE visible
26 Oct - 22:06:02 10° SW 22:19:34 50° SSE 22:27:18 10° E visible
27 Oct - 00:22:30 10° WSW 00:32:47 78° S 00:38:26 10° E night (unlit)
27 Oct - 02:38:26 10° W 02:44:56 66° SSW 02:49:04 10° ESE night (unlit)
27 Oct - 04:53:12 10° WSW 04:55:52 16° SSW 04:58:16 10° S visible
27 Oct - 18:41:51 10° S 18:51:22 17° SE 18:59:11 10° ESE visible
27 Oct - 20:51:46 10° SW 21:06:22 40° SSE 21:15:27 10° E visible
27 Oct - 23:07:33 10° WSW 23:20:19 69° SSE 23:27:15 10° E visible
28 Oct - 01:24:26 10° W 01:33:07 81° S 01:38:04 10° E night (unlit)
28 Oct - 03:39:43 10° W 03:44:38 35° SSW 03:48:13 10° SE night (unlit)
28 Oct - 19:38:18 10° SSW 19:52:45 31° SSE 20:02:50 10° E visible
28 Oct - 21:52:31 10° SW 22:07:25 59° SSE 22:15:50 10° E visible
29 Oct - 00:09:42 10° W 00:20:55 82° S 00:26:59 10° E visible
29 Oct - 02:26:06 10° W 02:33:12 60° SSW 02:37:33 10° ESE night (unlit)
29 Oct - 04:42:00 10° WSW 04:43:57 13° SW 04:45:43 10° S visible
29 Oct - 18:26:16 10° S 18:38:51 22° SE 18:48:52 10° ESE visible
29 Oct - 20:37:50 10° SW 20:54:01 48° SSE 21:03:59 10° E visible
29 Oct - 22:54:26 10° WSW 23:08:17 76° S 23:15:45 10° E visible
30 Oct - 01:11:50 10° W 01:21:19 79° S 01:26:37 10° ESE night (unlit)
30 Oct - 03:27:40 10° W 03:32:47 29° SSW 03:36:25 10° SSE night (unlit)
30 Oct - 17:17:14 10° SSE 17:24:49 13° SE 17:31:43 10° ESE daylight
30 Oct - 19:23:58 10° SSW 19:40:13 37° SSE 19:51:29 10° E visible
30 Oct - 21:39:03 10° WSW 21:55:09 66° SSE 22:04:16 10° E visible
30 Oct - 23:56:50 10° W 00:08:59 84° S 00:15:31 10° E visible
31 Oct - 02:13:41 10° W 02:21:22 54° SSW 02:25:59 10° SE night (unlit)
31 Oct - 18:11:22 10° SSW 18:26:10 28° SE 18:37:52 10° E visible
31 Oct - 20:24:04 10° SW 20:41:33 55° SSE 20:52:23 10° E visible
31 Oct - 22:41:18 10° WSW 22:56:09 81° S 23:04:12 10° E visible
01 Nov - 00:59:08 10° W 01:09:28 75° SSW 01:15:08 10° ESE night (unlit)
01 Nov - 03:15:35 10° W 03:20:49 25° SW 03:24:32 10° SSE night (unlit)
01 Nov - 17:00:52 10° S 17:12:04 18° SE 17:22:06 10° ESE daylight
01 Nov - 19:09:55 10° SW 19:27:32 44° SSE 19:39:54 10° E visible
01 Nov - 21:25:40 10° WSW 21:42:48 73° SSE 21:52:38 10° E visible
01 Nov - 23:43:54 10° W 23:57:00 84° S 00:00:00 45° E visible
